| time (UTC) | temp F | wind direction | speed MPH | gust MPH | rain 1hr in | rain 24hr in | rain mn in | humidity % | barometer mb |
| 20260901204515 | 61 | 42 | 0.0 | 1.0 | 0.00 | 0.00 | 0.00 | 29 | 1005.9 |
| 20260901203009 | 62 | 278 | 0.0 | 1.0 | 0.00 | 0.00 | 0.00 | 38 | 1005.9 |
| 20260901201505 | 62 | 277 | 0.0 | 1.0 | 0.00 | 0.00 | 0.00 | 44 | 1005.9 |
| 20260901200100 | 63 | 264 | 0.0 | 1.0 | 0.00 | 0.00 | 0.00 | 50 | 1005.9 |
| 20260901194559 | 65 | 264 | 0.0 | 1.0 | 0.00 | 0.00 | 0.00 | 58 | 1005.9 |
| 20260901193056 | 65 | 336 | 0.0 | 1.0 | 0.00 | 0.00 | 0.00 | 55 | 1005.9 |
| 20260901191547 | 65 | 193 | 0.0 | 0.0 | 0.00 | 0.00 | 0.00 | 56 | 1006.0 |
| 20260901190046 | 66 | 193 | 0.0 | 0.0 | 0.00 | 0.00 | 0.00 | 60 | 1005.9 |
| 20260901184545 | 67 | 193 | 0.0 | 0.0 | 0.00 | 0.00 | 0.00 | 59 | 1005.8 |
| 20260901183036 | 66 | 146 | 0.0 | 1.0 | 0.00 | 0.00 | 0.00 | 52 | 1005.9 |
| 20260901181533 | 65 | 145 | 0.0 | 0.0 | 0.00 | 0.00 | 0.00 | 46 | 1005.9 |
| 20260901180025 | 64 | 148 | 0.0 | 0.0 | 0.00 | 0.00 | 0.00 | 26 | 1005.9 |
| 20260901174520 | 62 | 148 | 0.0 | 1.0 | 0.00 | 0.00 | 0.00 | 12 | 1005.8 |
| 20260901173015 | 60 | 247 | 0.0 | 1.0 | 0.00 | 0.00 | 0.00 | 1 | 1005.9 |
| 20260901171512 | 59 | 248 | 0.0 | 0.0 | 0.00 | 0.00 | 0.00 | 1 | 1005.9 |
| 20260901170007 | 58 | 248 | 0.0 | 0.0 | 0.00 | 0.00 | 0.00 | 1 | 1005.9 |
| 20260901164502 | 58 | 247 | 0.0 | 0.0 | 0.00 | 0.00 | 0.00 | 1 | 1005.8 |
| 20260901163058 | 58 | 248 | 0.0 | 0.0 | 0.00 | 0.00 | 0.00 | 1 | 1005.9 |
| 20260901161554 | 58 | 247 | 0.0 | 0.0 | 0.00 | 0.00 | 0.00 | 1 | 1005.9 |
| 20260901160048 | 57 | 248 | 0.0 | 0.0 | 0.00 | 0.00 | 0.00 | 1 | 1006.0 |
| 20260901154544 | 57 | 248 | 0.0 | 0.0 | 0.00 | 0.00 | 0.00 | 1 | 1005.9 |
| 20260901153042 | 56 | 248 | 0.0 | 0.0 | 0.00 | 0.00 | 0.00 | 1 | 1005.9 |
| 20260901151535 | 55 | 247 | 0.0 | 0.0 | 0.00 | 0.00 | 0.00 | 1 | 1005.7 |
| 20260901150032 | 55 | 248 | 0.0 | 0.0 | 0.00 | 0.00 | 0.00 | 1 | 1005.7 |
| 20260901144529 | 0 | 0.0 | 0.0 | 0.00 | 0.00 | 0.00 | 1005.5 | ||
| 20260901143022 | 0 | 0.0 | 0.0 | 0.00 | 0.00 | 0.00 | 1005.4 | ||
| 20260901141532 | 0 | 0.0 | 0.0 | 0.00 | 0.00 | 0.00 | 1005.3 | ||
| 20260901140013 | 0 | 0.0 | 0.0 | 0.00 | 0.00 | 0.00 | 1005.3 | ||
| 20260901134511 | 0 | 0.0 | 0.0 | 0.00 | 0.00 | 0.00 | 1005.1 | ||
| 20260901133009 | 0 | 0.0 | 0.0 | 0.00 | 0.00 | 0.00 | 1005.0 | ||
| 20260901131604 | 0 | 0.0 | 0.0 | 0.00 | 0.00 | 0.00 | 1005.0 | ||
| 20260901130055 | 0 | 0.0 | 0.0 | 0.00 | 0.00 | 0.00 | 1004.8 | ||
| 20260901124555 | 0 | 0.0 | 0.0 | 0.00 | 0.00 | 0.00 | 1005.0 | ||
| 20260901123047 | 53 | 4 | 0.0 | 1.0 | 0.00 | 0.00 | 0.00 | 1 | 1005.0 |
| 20260901121545 | 53 | 1 | 0.0 | 1.0 | 0.00 | 0.00 | 0.00 | 1 | 1005.0 |
| 20260901120037 | 53 | 251 | 0.0 | 0.0 | 0.00 | 0.00 | 0.00 | 1 | 1005.1 |
| 20260901114545 | 54 | 251 | 0.0 | 1.0 | 0.00 | 0.00 | 0.00 | 1 | 1005.2 |
| 20260901113028 | 54 | 251 | 0.0 | 0.0 | 0.00 | 0.00 | 0.00 | 1 | 1005.3 |
| 20260901111524 | 55 | 251 | 0.0 | 1.0 | 0.00 | 0.00 | 0.00 | 1 | 1005.2 |
| 20260901110020 | 55 | 330 | 0.0 | 2.0 | 0.00 | 0.00 | 0.00 | 1 | 1005.3 |
| 20260901104515 | 54 | 229 | 0.0 | 0.0 | 0.00 | 0.00 | 0.00 | 1 | 1005.2 |
| 20260901103011 | 54 | 229 | 0.0 | 0.0 | 0.00 | 0.00 | 0.00 | 1 | 1005.3 |
| 20260901101506 | 54 | 229 | 0.0 | 0.0 | 0.00 | 0.00 | 0.00 | 1 | 1005.3 |
| 20260901100001 | 54 | 229 | 0.0 | 0.0 | 0.00 | 0.00 | 0.00 | 1 | 1005.4 |
| 20260901094557 | 54 | 229 | 0.0 | 0.0 | 0.00 | 0.00 | 0.00 | 1 | 1005.2 |
| 20260901093053 | 54 | 229 | 0.0 | 0.0 | 0.00 | 0.00 | 0.00 | 1 | 1005.3 |
| 20260901091553 | 54 | 229 | 0.0 | 0.0 | 0.00 | 0.00 | 0.00 | 1 | 1005.2 |
| 20260901090044 | 54 | 229 | 0.0 | 0.0 | 0.00 | 0.00 | 0.00 | 1 | 1005.2 |
| 20260901084539 | 54 | 229 | 0.0 | 0.0 | 0.00 | 0.00 | 0.00 | 1 | 1005.2 |
| 20260901083036 | 55 | 229 | 0.0 | 0.0 | 0.00 | 0.00 | 0.00 | 1 | 1005.1 |
| 20260901081538 | 54 | 229 | 0.0 | 0.0 | 0.00 | 0.00 | 0.00 | 1 | 1005.2 |
| 20260901080030 | 54 | 229 | 0.0 | 0.0 | 0.00 | 0.00 | 0.00 | 1 | 1005.1 |
| 20260901074522 | 54 | 229 | 0.0 | 0.0 | 0.00 | 0.00 | 0.00 | 1 | 1005.0 |
| 20260901073019 | 55 | 229 | 0.0 | 0.0 | 0.00 | 0.00 | 0.00 | 1 | 1005.1 |
| 20260901071514 | 55 | 229 | 0.0 | 0.0 | 0.00 | 0.00 | 0.00 | 1 | 1005.1 |
| 20260901070009 | 55 | 229 | 0.0 | 0.0 | 0.00 | 0.00 | 0.00 | 1 | 1005.1 |
| 20260901064505 | 55 | 229 | 0.0 | 0.0 | 0.00 | 0.00 | 0.00 | 1 | 1005.2 |
| 20260901063002 | 55 | 229 | 0.0 | 0.0 | 0.00 | 0.00 | 0.00 | 1 | 1005.3 |
| 20260901061557 | 55 | 229 | 0.0 | 0.0 | 0.00 | 0.00 | 0.00 | 1 | 1005.4 |
| 20260901060052 | 56 | 229 | 0.0 | 0.0 | 0.00 | 0.00 | 0.00 | 2 | 1005.5 |
| 20260901054551 | 56 | 229 | 0.0 | 0.0 | 0.00 | 0.00 | 0.00 | 2 | 1005.7 |
| 20260901053051 | 56 | 229 | 0.0 | 0.0 | 0.00 | 0.00 | 0.00 | 2 | 1005.7 |
| 20260901051539 | 56 | 229 | 0.0 | 0.0 | 0.00 | 0.00 | 0.00 | 1 | 1005.6 |
| 20260901050035 | 56 | 229 | 0.0 | 0.0 | 0.00 | 0.00 | 0.00 | 1 | 1005.8 |
| 20260901044530 | 57 | 229 | 0.0 | 0.0 | 0.00 | 0.00 | 0.00 | 6 | 1005.8 |
| 20260901043026 | 57 | 229 | 0.0 | 0.0 | 0.00 | 0.00 | 0.00 | 7 | 1005.8 |
| 20260901041523 | 57 | 229 | 0.0 | 0.0 | 0.00 | 0.00 | 0.00 | 13 | 1005.7 |
| 20260901040018 | 57 | 229 | 0.0 | 0.0 | 0.00 | 0.00 | 0.00 | 19 | 1005.7 |
| 20260901034521 | 58 | 221 | 0.0 | 0.0 | 0.00 | 0.00 | 0.00 | 27 | 1005.6 |
| 20260901033012 | 58 | 122 | 0.0 | 0.0 | 0.00 | 0.00 | 0.00 | 28 | 1005.5 |
| 20260901031508 | 58 | 122 | 0.0 | 0.0 | 0.00 | 0.00 | 0.00 | 33 | 1005.5 |
| 20260901030059 | 59 | 122 | 0.0 | 0.0 | 0.00 | 0.00 | 0.00 | 39 | 1005.6 |
| 20260901024555 | 60 | 122 | 0.0 | 0.0 | 0.00 | 0.00 | 0.00 | 50 | 1005.7 |
| 20260901023050 | 62 | 122 | 0.0 | 0.0 | 0.00 | 0.00 | 0.00 | 59 | 1005.7 |
| 20260901021546 | 64 | 122 | 0.0 | 0.0 | 0.00 | 0.00 | 0.00 | 63 | 1005.6 |
| 20260901020041 | 65 | 122 | 0.0 | 0.0 | 0.00 | 0.00 | 0.00 | 62 | 1005.7 |
| 20260901014539 | 66 | 122 | 0.0 | 0.0 | 0.00 | 0.00 | 0.00 | 61 | 1005.9 |
| 20260901013050 | 67 | 122 | 0.0 | 0.0 | 0.00 | 0.00 | 0.00 | 61 | 1005.9 |
| 20260901011536 | 66 | 122 | 0.0 | 0.0 | 0.00 | 0.00 | 0.00 | 61 | 1005.9 |
| 20260901010024 | 66 | 122 | 0.0 | 0.0 | 0.00 | 0.00 | 0.00 | 61 | 1006.0 |
| 20260901004520 | 67 | 125 | 0.0 | 0.0 | 0.00 | 0.00 | 0.00 | 61 | 1006.1 |
| 20260901003015 | 67 | 124 | 0.0 | 0.0 | 0.00 | 0.00 | 0.00 | 62 | 1006.2 |
| 20260901001515 | 67 | 124 | 0.0 | 0.0 | 0.00 | 0.00 | 0.00 | 62 | 1006.4 |
| 20260901000006 | 67 | 124 | 0.0 | 0.0 | 0.00 | 0.00 | 0.00 | 62 | 1006.5 |
| 20260831234502 | 67 | 124 | 0.0 | 0.0 | 0.00 | 0.00 | 0.00 | 61 | 1006.5 |
| 20260831233056 | 68 | 125 | 0.0 | 0.0 | 0.00 | 0.00 | 0.00 | 61 | 1006.7 |
| 20260831231552 | 69 | 124 | 0.0 | 0.0 | 0.00 | 0.00 | 0.00 | 59 | 1006.8 |
| 20260831230048 | 70 | 125 | 0.0 | 0.0 | 0.00 | 0.00 | 0.00 | 58 | 1007.0 |
| 20260831224543 | 70 | 124 | 0.0 | 1.0 | 0.00 | 0.00 | 0.00 | 58 | 1007.2 |
| 20260831223042 | 71 | 15 | 0.0 | 1.0 | 0.00 | 0.00 | 0.00 | 55 | 1007.5 |
| 20260831221534 | 71 | 334 | 0.0 | 1.0 | 0.00 | 0.00 | 0.00 | 58 | 1007.5 |
| 20260831220031 | 70 | 1 | 0.0 | 1.0 | 0.00 | 0.00 | 0.00 | 59 | 1007.7 |
| 20260831214526 | 70 | 5 | 0.0 | 1.0 | 0.00 | 0.00 | 0.00 | 58 | 1007.9 |
| 20260831213024 | 70 | 75 | 0.0 | 1.0 | 0.00 | 0.00 | 0.00 | 59 | 1008.1 |
| 20260831211517 | 70 | 314 | 0.0 | 1.0 | 0.00 | 0.00 | 0.00 | 60 | 1008.3 |
| 20260831210012 | 70 | 288 | 0.0 | 1.0 | 0.00 | 0.00 | 0.00 | 58 | 1008.5 |